Time,TemperatureF,DewpointF,PressureIn,WindDirection,WindDirectionDegrees,WindSpeedMPH,WindSpeedGustMPH,Humidity,HourlyPrecipIn,Conditions,Clouds,dailyrainin,SolarRadiationWatts/m^2,SoftwareType,DateUTC
2013-08-23 00:00:00,71.4,67.0,29.91,West,261,0.0,1.0,86,0.00,,---,0.00,0.00,VWS V14.01,2013-08-23 04:00:00,
2013-08-23 00:01:00,71.3,66.6,29.91,ESE,120,0.0,0.0,85,0.00,,---,0.00,0.00,VWS V14.01,2013-08-23 04:01:00,
2013-08-23 00:06:00,71.2,66.8,29.91,ESE,120,0.0,0.0,86,0.00,,---,0.00,0.00,VWS V14.01,2013-08-23 04:06:00,
2013-08-23 00:11:00,70.9,66.5,29.92,ESE,120,0.0,0.0,86,0.00,,---,0.00,0.00,VWS V14.01,2013-08-23 04:11:00,
2013-08-23 00:16:00,70.7,66.3,29.92,ESE,120,0.0,0.0,86,0.00,,---,0.00,0.00,VWS V14.01,2013-08-23 04:16:00,
2013-08-23 00:21:00,70.5,66.4,29.92,ESE,120,0.0,0.0,87,0.00,,---,0.00,0.00,VWS V14.01,2013-08-23 04:21:00,
2013-08-23 00:26:00,70.3,66.6,29.92,ESE,120,0.0,0.0,88,0.00,,---,0.00,0.00,VWS V14.01,2013-08-23 04:26:00,
2013-08-23 00:30:00,71.7,66.6,29.92,East,84,0.0,2.0,84,0.00,,---,0.00,0.00,VWS V14.01,2013-08-23 04:30:00,
2013-08-23 00:31:00,70.0,66.3,29.92,ESE,120,0.0,0.0,88,0.00,,---,0.00,0.00,VWS V14.01,2013-08-23 04:31:00,
2013-08-23 00:36:00,69.8,66.4,29.92,ESE,120,0.0,0.0,89,0.00,,---,0.00,0.00,VWS V14.01,2013-08-23 04:36:00,
2013-08-23 00:41:00,69.7,66.3,29.92,ESE,120,0.0,0.0,89,0.00,,---,0.00,0.00,VWS V14.01,2013-08-23 04:41:00,
2013-08-23 00:46:00,69.5,66.1,29.92,ESE,120,0.0,0.0,89,0.00,,---,0.00,0.00,VWS V14.01,2013-08-23 04:46:00,
2013-08-23 00:51:00,69.3,66.2,29.92,ESE,120,1.0,1.0,90,0.00,,---,0.00,0.00,VWS V14.01,2013-08-23 04:51:00,
2013-08-23 00:56:00,69.2,66.2,29.92,SSW,201,0.0,1.0,90,0.00,,---,0.00,0.00,VWS V14.01,2013-08-23 04:56:00,
2013-08-23 01:00:00,71.3,66.6,29.91,ESE,120,0.0,3.0,85,0.00,,---,0.00,0.00,VWS V14.01,2013-08-23 05:00:00,
2013-08-23 01:01:00,69.1,66.1,29.92,SSW,201,0.0,0.0,90,0.00,,---,0.00,0.00,VWS V14.01,2013-08-23 05:01:00,
2013-08-23 01:06:00,69.0,65.9,29.92,SSW,201,0.0,0.0,90,0.00,,---,0.00,0.00,VWS V14.01,2013-08-23 05:06:00,
2013-08-23 01:11:00,69.0,66.3,29.92,SSE,148,0.0,0.0,91,0.00,,---,0.00,0.00,VWS V14.01,2013-08-23 05:11:00,
2013-08-23 01:16:00,69.0,65.9,29.92,SW,234,0.0,3.0,90,0.00,,---,0.00,0.00,VWS V14.01,2013-08-23 05:16:00,
2013-08-23 01:21:00,68.9,65.8,29.92,East,92,0.0,3.0,90,0.00,,---,0.00,0.00,VWS V14.01,2013-08-23 05:21:00,
2013-08-23 01:26:00,69.0,66.3,29.92,East,93,0.0,3.0,91,0.00,,---,0.00,0.00,VWS V14.01,2013-08-23 05:26:00,
2013-08-23 01:30:00,70.1,66.4,29.92,ESE,120,0.0,0.0,88,0.00,,---,0.00,0.00,VWS V14.01,2013-08-23 05:30:00,
2013-08-23 01:31:00,69.0,65.9,29.92,East,93,0.0,0.0,90,0.00,,---,0.00,0.00,VWS V14.01,2013-08-23 05:31:00,
2013-08-23 01:36:00,68.9,66.2,29.92,East,93,0.0,0.0,91,0.00,,---,0.00,0.00,VWS V14.01,2013-08-23 05:36:00,
2013-08-23 01:41:00,68.8,65.8,29.92,East,93,0.0,0.0,90,0.00,,---,0.00,0.00,VWS V14.01,2013-08-23 05:41:00,
2013-08-23 01:46:00,68.6,65.9,29.92,East,93,0.0,0.0,91,0.00,,---,0.00,0.00,VWS V14.01,2013-08-23 05:46:00,
2013-08-23 01:51:00,68.4,65.7,29.92,East,93,0.0,0.0,91,0.00,,---,0.00,0.00,VWS V14.01,2013-08-23 05:51:00,
2013-08-23 01:56:00,68.1,65.4,29.92,East,93,0.0,0.0,91,0.00,,---,0.00,0.00,VWS V14.01,2013-08-23 05:56:00,
2013-08-23 02:00:00,69.1,66.1,29.92,SSW,201,0.0,1.0,90,0.00,,---,0.00,0.00,VWS V14.01,2013-08-23 06:00:00,
2013-08-23 02:01:00,68.0,65.3,29.92,East,93,0.0,0.0,91,0.00,,---,0.00,0.00,VWS V14.01,2013-08-23 06:01:00,
2013-08-23 02:06:00,67.8,65.4,29.92,East,93,0.0,0.0,92,0.00,,---,0.00,0.00,VWS V14.01,2013-08-23 06:06:00,
2013-08-23 02:11:00,67.6,65.2,29.93,East,92,0.0,0.0,92,0.00,,---,0.00,0.00,VWS V14.01,2013-08-23 06:11:00,
2013-08-23 02:16:00,67.4,65.0,29.93,East,93,0.0,0.0,92,0.00,,---,0.00,0.00,VWS V14.01,2013-08-23 06:16:00,
2013-08-23 02:21:00,67.2,65.1,29.93,East,93,0.0,0.0,93,0.00,,---,0.00,0.00,VWS V14.01,2013-08-23 06:21:00,
2013-08-23 02:26:00,67.0,64.9,29.92,East,92,0.0,0.0,93,0.00,,---,0.00,0.00,VWS V14.01,2013-08-23 06:26:00,
2013-08-23 02:30:00,69.0,65.9,29.92,East,93,0.0,3.0,90,0.00,,---,0.00,0.00,VWS V14.01,2013-08-23 06:30:00,
2013-08-23 02:31:00,66.8,64.7,29.93,East,93,0.0,0.0,93,0.00,,---,0.00,0.00,VWS V14.01,2013-08-23 06:31:00,
2013-08-23 02:36:00,66.6,64.5,29.93,East,93,0.0,0.0,93,0.00,,---,0.00,0.00,VWS V14.01,2013-08-23 06:36:00,
2013-08-23 02:41:00,66.4,64.3,29.93,East,92,0.0,0.0,93,0.00,,---,0.00,0.00,VWS V14.01,2013-08-23 06:41:00,
2013-08-23 02:46:00,66.3,64.5,29.93,East,93,0.0,0.0,94,0.00,,---,0.00,0.00,VWS V14.01,2013-08-23 06:46:00,
2013-08-23 02:51:00,66.1,64.3,29.93,East,93,0.0,0.0,94,0.00,,---,0.00,0.00,VWS V14.01,2013-08-23 06:51:00,
2013-08-23 02:56:00,66.0,64.2,29.93,East,93,0.0,0.0,94,0.00,,---,0.00,0.00,VWS V14.01,2013-08-23 06:56:00,
2013-08-23 03:00:00,68.0,65.3,29.92,East,92,0.0,0.0,91,0.00,,---,0.00,0.00,VWS V14.01,2013-08-23 07:00:00,
2013-08-23 03:01:00,65.9,64.1,29.93,East,93,0.0,0.0,94,0.00,,---,0.00,0.00,VWS V14.01,2013-08-23 07:01:00,
2013-08-23 03:06:00,65.7,63.9,29.93,East,93,0.0,0.0,94,0.00,,---,0.00,0.00,VWS V14.01,2013-08-23 07:06:00,
2013-08-23 03:11:00,65.6,63.8,29.93,East,92,0.0,0.0,94,0.00,,---,0.00,0.00,VWS V14.01,2013-08-23 07:11:00,
2013-08-23 03:16:00,65.5,64.0,29.93,East,93,0.0,0.0,95,0.00,,---,0.00,0.00,VWS V14.01,2013-08-23 07:16:00,
2013-08-23 03:21:00,65.3,63.5,29.93,East,92,0.0,0.0,94,0.00,,---,0.00,0.00,VWS V14.01,2013-08-23 07:21:00,
2013-08-23 03:26:00,65.2,63.7,29.92,East,93,0.0,0.0,95,0.00,,---,0.00,0.00,VWS V14.01,2013-08-23 07:26:00,
2013-08-23 03:30:00,66.8,64.7,29.93,East,92,0.0,0.0,93,0.00,,---,0.00,0.00,VWS V14.01,2013-08-23 07:30:00,
2013-08-23 03:31:00,65.3,63.8,29.92,East,92,0.0,0.0,95,0.00,,---,0.00,0.00,VWS V14.01,2013-08-23 07:31:00,
2013-08-23 03:36:00,65.3,63.8,29.92,East,92,0.0,2.0,95,0.00,,---,0.00,0.00,VWS V14.01,2013-08-23 07:36:00,
2013-08-23 03:41:00,65.2,63.7,29.92,East,92,0.0,2.0,95,0.00,,---,0.00,0.00,VWS V14.01,2013-08-23 07:41:00,
2013-08-23 03:46:00,65.2,63.7,29.92,East,93,0.0,2.0,95,0.00,,---,0.00,0.00,VWS V14.01,2013-08-23 07:46:00,
2013-08-23 03:51:00,65.2,63.7,29.92,East,92,0.0,2.0,95,0.00,,---,0.00,0.00,VWS V14.01,2013-08-23 07:51:00,
2013-08-23 03:56:00,65.3,63.5,29.92,East,101,0.0,2.0,94,0.00,,---,0.00,0.00,VWS V14.01,2013-08-23 07:56:00,
2013-08-23 04:00:00,65.9,64.1,29.93,East,92,0.0,0.0,94,0.00,,---,0.00,0.00,VWS V14.01,2013-08-23 08:00:00,
2013-08-23 04:01:00,65.4,63.6,29.92,East,101,0.0,0.0,94,0.00,,---,0.00,0.00,VWS V14.01,2013-08-23 08:01:00,
2013-08-23 04:06:00,65.4,63.6,29.92,East,101,0.0,0.0,94,0.00,,---,0.00,0.00,VWS V14.01,2013-08-23 08:06:00,
2013-08-23 04:11:00,65.4,63.6,29.92,East,101,0.0,0.0,94,0.00,,---,0.00,0.00,VWS V14.01,2013-08-23 08:11:00,
2013-08-23 04:16:00,65.3,63.5,29.92,East,101,0.0,0.0,94,0.00,,---,0.00,0.00,VWS V14.01,2013-08-23 08:16:00,
2013-08-23 04:21:00,65.2,63.4,29.92,East,101,0.0,0.0,94,0.00,,---,0.00,0.00,VWS V14.01,2013-08-23 08:21:00,
2013-08-23 04:26:00,65.1,63.3,29.93,East,101,0.0,0.0,94,0.00,,---,0.00,0.00,VWS V14.01,2013-08-23 08:26:00,
2013-08-23 04:30:00,65.2,63.7,29.93,East,93,0.0,0.0,95,0.00,,---,0.00,0.00,VWS V14.01,2013-08-23 08:30:00,
2013-08-23 04:31:00,65.0,63.2,29.93,East,101,0.0,0.0,94,0.00,,---,0.00,0.00,VWS V14.01,2013-08-23 08:31:00,
2013-08-23 04:36:00,64.9,63.1,29.93,East,101,0.0,0.0,94,0.00,,---,0.00,0.00,VWS V14.01,2013-08-23 08:36:00,
2013-08-23 04:41:00,64.9,63.1,29.93,East,101,0.0,0.0,94,0.00,,---,0.00,0.00,VWS V14.01,2013-08-23 08:41:00,
2013-08-23 04:46:00,64.9,63.1,29.93,East,101,0.0,0.0,94,0.00,,---,0.00,0.00,VWS V14.01,2013-08-23 08:46:00,
2013-08-23 04:51:00,64.9,63.1,29.93,East,101,0.0,0.0,94,0.00,,---,0.00,0.00,VWS V14.01,2013-08-23 08:51:00,
2013-08-23 04:56:00,64.8,63.0,29.93,East,101,0.0,0.0,94,0.00,,---,0.00,0.00,VWS V14.01,2013-08-23 08:56:00,
2013-08-23 05:00:00,65.4,63.6,29.92,East,101,0.0,2.0,94,0.00,,---,0.00,0.00,VWS V14.01,2013-08-23 09:00:00,
2013-08-23 05:01:00,64.6,62.8,29.93,East,101,0.0,0.0,94,0.00,,---,0.00,0.00,VWS V14.01,2013-08-23 09:01:00,
2013-08-23 05:06:00,64.5,62.7,29.93,East,101,0.0,0.0,94,0.00,,---,0.00,0.00,VWS V14.01,2013-08-23 09:06:00,
2013-08-23 05:11:00,64.4,62.6,29.93,East,101,0.0,0.0,94,0.00,,---,0.00,0.00,VWS V14.01,2013-08-23 09:11:00,
2013-08-23 05:16:00,64.3,62.5,29.94,East,101,0.0,0.0,94,0.00,,---,0.00,0.00,VWS V14.01,2013-08-23 09:16:00,
2013-08-23 05:21:00,64.2,62.7,29.94,East,101,0.0,0.0,95,0.00,,---,0.00,0.00,VWS V14.01,2013-08-23 09:21:00,
2013-08-23 05:26:00,64.1,62.6,29.95,East,101,0.0,0.0,95,0.00,,---,0.00,0.00,VWS V14.01,2013-08-23 09:26:00,
2013-08-23 05:30:00,64.1,62.6,29.95,East,90,0.0,0.0,95,0.00,,---,0.00,0.00,VWS V14.01,2013-08-23 09:30:00,
2013-08-23 05:31:00,64.1,62.6,29.94,East,101,0.0,0.0,95,0.00,,---,0.00,0.00,VWS V14.01,2013-08-23 09:31:00,
2013-08-23 05:38:00,64.0,62.5,29.95,East,101,0.0,0.0,95,0.00,,---,0.00,0.00,VWS V14.01,2013-08-23 09:38:00,
2013-08-23 05:43:00,63.9,62.4,29.95,East,101,0.0,0.0,95,0.00,,---,0.00,0.00,VWS V14.01,2013-08-23 09:43:00,
2013-08-23 05:48:00,63.8,62.3,29.95,East,101,0.0,0.0,95,0.00,,---,0.00,0.00,VWS V14.01,2013-08-23 09:48:00,
2013-08-23 05:53:00,63.6,62.2,29.95,East,101,0.0,0.0,95,0.00,,---,0.00,0.00,VWS V14.01,2013-08-23 09:53:00,
2013-08-23 05:58:00,63.5,62.0,29.96,East,101,0.0,0.0,95,0.00,,---,0.00,0.00,VWS V14.01,2013-08-23 09:58:00,
2013-08-23 06:00:00,64.7,62.9,29.93,East,101,0.0,0.0,94,0.00,,---,0.00,0.00,VWS V14.01,2013-08-23 10:00:00,
2013-08-23 06:03:00,63.5,62.0,29.96,East,101,0.0,0.0,95,0.00,,---,0.00,0.00,VWS V14.01,2013-08-23 10:03:00,
2013-08-23 06:08:00,63.4,62.0,29.96,East,101,0.0,0.0,95,0.00,,---,0.00,0.00,VWS V14.01,2013-08-23 10:08:00,
2013-08-23 06:13:00,63.4,62.0,29.97,East,101,0.0,0.0,95,0.00,,---,0.00,0.00,VWS V14.01,2013-08-23 10:13:00,
2013-08-23 06:21:00,64.1,62.6,29.95,East,90,0.0,0.0,95,0.00,,---,0.00,0.00,VWS V14.01,2013-08-23 10:21:00,
2013-08-23 06:26:00,63.2,62.0,29.97,East,101,0.0,0.0,96,0.00,,---,0.00,12.00,VWS V14.01,2013-08-23 10:26:00,
2013-08-23 06:30:00,64.1,62.6,29.95,East,101,0.0,0.0,95,0.00,,---,0.00,0.00,VWS V14.01,2013-08-23 10:30:00,
2013-08-23 06:31:00,63.1,61.9,29.98,East,101,0.0,0.0,96,0.00,,---,0.00,16.00,VWS V14.01,2013-08-23 10:31:00,
2013-08-23 06:37:00,63.0,61.8,29.98,East,101,0.0,0.0,96,0.00,,---,0.00,21.00,VWS V14.01,2013-08-23 10:37:00,
2013-08-23 06:42:00,63.1,61.9,29.98,East,101,0.0,0.0,96,0.00,,---,0.00,32.00,VWS V14.01,2013-08-23 10:42:00,
2013-08-23 06:47:00,63.1,61.9,29.98,East,101,0.0,0.0,96,0.00,,---,0.00,37.00,VWS V14.01,2013-08-23 10:47:00,
2013-08-23 06:52:00,63.1,61.9,29.98,East,101,0.0,0.0,96,0.00,,---,0.00,42.00,VWS V14.01,2013-08-23 10:52:00,
2013-08-23 06:57:00,63.0,61.8,29.99,East,101,0.0,0.0,96,0.00,,---,0.00,49.00,VWS V14.01,2013-08-23 10:57:00,
2013-08-23 07:00:00,63.5,62.0,29.96,East,101,0.0,0.0,95,0.00,,---,0.00,0.00,VWS V14.01,2013-08-23 11:00:00,
2013-08-23 07:02:00,63.0,61.8,29.99,East,101,0.0,0.0,96,0.00,,---,0.00,53.00,VWS V14.01,2013-08-23 11:02:00,
2013-08-23 07:07:00,63.0,61.8,29.99,East,101,0.0,0.0,96,0.00,,---,0.00,58.00,VWS V14.01,2013-08-23 11:07:00,
2013-08-23 07:12:00,63.1,61.9,29.99,East,101,0.0,0.0,96,0.00,,---,0.00,69.00,VWS V14.01,2013-08-23 11:12:00,
2013-08-23 07:17:00,63.3,62.1,29.99,East,101,0.0,0.0,96,0.00,,---,0.00,79.00,VWS V14.01,2013-08-23 11:17:00,
2013-08-23 07:22:00,63.4,62.2,29.99,East,101,0.0,0.0,96,0.00,,---,0.00,67.00,VWS V14.01,2013-08-23 11:22:00,
2013-08-23 07:27:00,63.5,62.3,29.99,East,101,0.0,0.0,96,0.00,,---,0.00,74.00,VWS V14.01,2013-08-23 11:27:00,
2013-08-23 07:32:00,63.7,62.5,29.99,East,101,0.0,0.0,96,0.00,,---,0.00,79.00,VWS V14.01,2013-08-23 11:32:00,
2013-08-23 07:37:00,63.9,62.7,29.99,East,101,0.0,0.0,96,0.00,,---,0.00,121.00,VWS V14.01,2013-08-23 11:37:00,
2013-08-23 07:42:00,64.2,63.0,29.99,East,101,0.0,0.0,96,0.00,,---,0.00,148.00,VWS V14.01,2013-08-23 11:42:00,
2013-08-23 07:47:00,64.5,63.0,30.00,East,101,0.0,0.0,95,0.00,,---,0.00,167.00,VWS V14.01,2013-08-23 11:47:00,
2013-08-23 07:52:00,64.7,62.9,30.00,NE,36,0.0,2.0,94,0.00,,---,0.00,132.00,VWS V14.01,2013-08-23 11:52:00,
2013-08-23 07:57:00,65.0,62.9,30.00,NE,36,0.0,2.0,93,0.00,,---,0.00,128.00,VWS V14.01,2013-08-23 11:57:00,
2013-08-23 08:00:00,63.0,61.8,29.98,East,101,0.0,0.0,96,0.00,,---,0.00,51.00,VWS V14.01,2013-08-23 12:00:00,
2013-08-23 08:02:00,65.4,63.3,30.00,NE,36,0.0,0.0,93,0.00,,---,0.00,171.00,VWS V14.01,2013-08-23 12:02:00,
2013-08-23 08:07:00,65.7,63.3,30.00,NE,36,0.0,0.0,92,0.00,,---,0.00,301.00,VWS V14.01,2013-08-23 12:07:00,
2013-08-23 08:12:00,66.4,63.7,30.01,NE,36,0.0,1.0,91,0.00,,---,0.00,243.00,VWS V14.01,2013-08-23 12:12:00,
2013-08-23 08:17:00,67.0,64.0,30.01,NE,36,0.0,1.0,90,0.00,,---,0.00,162.00,VWS V14.01,2013-08-23 12:17:00,
2013-08-23 08:22:00,67.4,64.1,30.01,NE,36,0.0,1.0,89,0.00,,---,0.00,276.00,VWS V14.01,2013-08-23 12:22:00,
2013-08-23 08:27:00,67.6,63.6,30.01,ENE,65,0.0,1.0,87,0.00,,---,0.00,213.00,VWS V14.01,2013-08-23 12:27:00,
2013-08-23 08:30:00,63.6,62.4,29.99,East,101,0.0,0.0,96,0.00,,---,0.00,72.00,VWS V14.01,2013-08-23 12:30:00,
2013-08-23 08:32:00,67.9,63.9,30.01,ENE,65,0.0,0.0,87,0.00,,---,0.00,308.00,VWS V14.01,2013-08-23 12:32:00,
2013-08-23 08:37:00,68.4,63.7,30.01,ENE,65,0.0,1.0,85,0.00,,---,0.00,304.00,VWS V14.01,2013-08-23 12:37:00,
2013-08-23 08:42:00,69.0,64.6,30.01,ENE,65,0.0,3.0,86,0.00,,---,0.00,359.00,VWS V14.01,2013-08-23 12:42:00,
2013-08-23 08:47:00,69.6,64.2,30.01,ENE,65,2.0,4.0,83,0.00,,---,0.00,438.00,VWS V14.01,2013-08-23 12:47:00,
2013-08-23 08:52:00,70.2,64.8,30.01,ENE,64,0.0,4.0,83,0.00,,---,0.00,466.00,VWS V14.01,2013-08-23 12:52:00,
2013-08-23 08:57:00,70.3,64.2,30.02,ENE,57,0.0,4.0,81,0.00,,---,0.00,441.00,VWS V14.01,2013-08-23 12:57:00,
2013-08-23 09:00:00,65.3,63.2,30.00,NE,36,0.0,2.0,93,0.00,,---,0.00,158.00,VWS V14.01,2013-08-23 13:00:00,
2013-08-23 09:02:00,70.5,63.7,30.02,ENE,65,0.0,0.0,79,0.00,,---,0.00,237.00,VWS V14.01,2013-08-23 13:02:00,
2013-08-23 09:07:00,70.4,63.9,30.02,ENE,65,0.0,0.0,80,0.00,,---,0.00,489.00,VWS V14.01,2013-08-23 13:07:00,
2013-08-23 09:12:00,70.4,63.6,30.02,ENE,65,0.0,0.0,79,0.00,,---,0.00,396.00,VWS V14.01,2013-08-23 13:12:00,
2013-08-23 09:17:00,70.5,63.3,30.02,ENE,65,0.0,0.0,78,0.00,,---,0.00,531.00,VWS V14.01,2013-08-23 13:17:00,
2013-08-23 09:22:00,70.7,63.1,30.02,West,275,2.0,5.0,77,0.00,,---,0.00,510.00,VWS V14.01,2013-08-23 13:22:00,
2013-08-23 09:27:00,71.2,63.6,30.01,East,91,0.0,5.0,77,0.00,,---,0.00,582.00,VWS V14.01,2013-08-23 13:27:00,
2013-08-23 09:30:00,67.8,63.8,30.01,ENE,65,0.0,1.0,87,0.00,,---,0.00,272.00,VWS V14.01,2013-08-23 13:30:00,
2013-08-23 09:32:00,71.6,63.3,30.01,ENE,62,2.0,2.0,75,0.00,,---,0.00,519.00,VWS V14.01,2013-08-23 13:32:00,
2013-08-23 09:37:00,72.1,63.8,30.01,NNE,25,1.0,3.0,75,0.00,,---,0.00,499.00,VWS V14.01,2013-08-23 13:37:00,
2013-08-23 09:42:00,72.3,63.2,30.01,NE,55,0.0,5.0,73,0.00,,---,0.00,603.00,VWS V14.01,2013-08-23 13:42:00,
2013-08-23 09:47:00,72.6,63.8,30.02,West,277,0.0,5.0,74,0.00,,---,0.00,587.00,VWS V14.01,2013-08-23 13:47:00,
2013-08-23 09:52:00,72.6,63.1,30.02,NW,319,0.0,5.0,72,0.00,,---,0.00,536.00,VWS V14.01,2013-08-23 13:52:00,
2013-08-23 09:57:00,72.5,63.4,30.02,ESE,110,0.0,5.0,73,0.00,,---,0.00,552.00,VWS V14.01,2013-08-23 13:57:00,
2013-08-23 10:00:00,70.4,63.9,30.02,ENE,65,0.0,4.0,80,0.00,,---,0.00,396.00,VWS V14.01,2013-08-23 14:00:00,
2013-08-23 10:02:00,72.6,63.1,30.02,WSW,250,0.0,0.0,72,0.00,,---,0.00,615.00,VWS V14.01,2013-08-23 14:02:00,
2013-08-23 10:07:00,72.6,62.3,30.03,SE,131,0.0,1.0,70,0.00,,---,0.00,661.00,VWS V14.01,2013-08-23 14:07:00,
2013-08-23 10:12:00,72.8,62.9,30.03,NE,36,0.0,3.0,71,0.00,,---,0.00,680.00,VWS V14.01,2013-08-23 14:12:00,
2013-08-23 10:17:00,73.5,62.7,30.03,NE,37,3.0,6.0,69,0.00,,---,0.00,671.00,VWS V14.01,2013-08-23 14:17:00,
2013-08-23 10:22:00,73.6,63.2,30.03,ENE,77,2.0,6.0,70,0.00,,---,0.00,671.00,VWS V14.01,2013-08-23 14:22:00,
2013-08-23 10:27:00,73.7,62.9,30.03,ENE,76,0.0,6.0,69,0.00,,---,0.00,745.00,VWS V14.01,2013-08-23 14:27:00,
2013-08-23 10:30:00,71.5,62.8,30.01,ENE,62,0.0,7.0,74,0.00,,---,0.00,439.00,VWS V14.01,2013-08-23 14:30:00,
2013-08-23 10:32:00,73.8,63.8,30.03,ENE,76,0.0,2.0,71,0.00,,---,0.00,826.00,VWS V14.01,2013-08-23 14:32:00,
2013-08-23 10:37:00,74.1,63.3,30.03,West,261,0.0,5.0,69,0.00,,---,0.00,782.00,VWS V14.01,2013-08-23 14:37:00,
2013-08-23 10:42:00,74.5,63.7,30.03,NE,54,2.0,5.0,69,0.00,,---,0.00,768.00,VWS V14.01,2013-08-23 14:42:00,
2013-08-23 10:47:00,74.6,63.8,30.03,East,83,0.0,5.0,69,0.00,,---,0.00,838.00,VWS V14.01,2013-08-23 14:47:00,
2013-08-23 10:52:00,74.6,63.3,30.03,ENE,70,1.0,5.0,68,0.00,,---,0.00,178.00,VWS V14.01,2013-08-23 14:52:00,
2013-08-23 10:57:00,73.9,61.8,30.03,ENE,71,0.0,5.0,66,0.00,,---,0.00,232.00,VWS V14.01,2013-08-23 14:57:00,
2013-08-23 11:00:00,72.5,63.4,30.02,WSW,250,0.0,5.0,73,0.00,,---,0.00,621.00,VWS V14.01,2013-08-23 15:00:00,
2013-08-23 11:02:00,73.7,62.1,30.03,East,91,2.0,2.0,67,0.00,,---,0.00,218.00,VWS V14.01,2013-08-23 15:02:00,
2013-08-23 11:07:00,73.0,61.8,30.03,West,265,0.0,4.0,68,0.00,,---,0.00,225.00,VWS V14.01,2013-08-23 15:07:00,
2013-08-23 11:12:00,72.7,62.4,30.03,West,263,4.0,5.0,70,0.00,,---,0.00,1005.00,VWS V14.01,2013-08-23 15:12:00,
2013-08-23 11:17:00,73.3,62.5,30.03,West,267,1.0,6.0,69,0.00,,---,0.00,250.00,VWS V14.01,2013-08-23 15:17:00,
2013-08-23 11:22:00,72.8,62.0,30.03,NW,305,0.0,9.0,69,0.00,,---,0.00,928.00,VWS V14.01,2013-08-23 15:22:00,
2013-08-23 11:27:00,73.6,62.8,30.03,West,271,4.0,9.0,69,0.00,,---,0.00,842.00,VWS V14.01,2013-08-23 15:27:00,
2013-08-23 11:30:00,73.8,62.6,30.03,ENE,76,2.0,6.0,68,0.00,,---,0.00,826.00,VWS V14.01,2013-08-23 15:30:00,
2013-08-23 11:32:00,74.0,61.1,30.03,East,82,2.0,4.0,64,0.00,,---,0.00,879.00,VWS V14.01,2013-08-23 15:32:00,
2013-08-23 11:37:00,74.8,64.0,30.03,ENE,68,0.0,5.0,69,0.00,,---,0.00,930.00,VWS V14.01,2013-08-23 15:37:00,
2013-08-23 11:42:00,74.9,61.5,30.03,East,80,6.0,7.0,63,0.00,,---,0.00,230.00,VWS V14.01,2013-08-23 15:42:00,
2013-08-23 11:47:00,74.4,62.3,30.03,ENE,65,2.0,7.0,66,0.00,,---,0.00,870.00,VWS V14.01,2013-08-23 15:47:00,
2013-08-23 11:52:00,74.8,62.7,30.03,SW,229,0.0,7.0,66,0.00,,---,0.00,905.00,VWS V14.01,2013-08-23 15:52:00,
2013-08-23 11:57:00,74.9,62.3,30.03,NE,38,0.0,11.0,65,0.00,,---,0.00,912.00,VWS V14.01,2013-08-23 15:57:00,
2013-08-23 12:00:00,73.8,62.2,30.03,East,85,0.0,5.0,67,0.00,,---,0.00,257.00,VWS V14.01,2013-08-23 16:00:00,
2013-08-23 12:02:00,75.3,62.7,30.03,ENE,57,1.0,7.0,65,0.00,,---,0.00,1035.00,VWS V14.01,2013-08-23 16:02:00,
2013-08-23 12:07:00,75.1,63.0,30.03,NE,44,0.0,7.0,66,0.00,,---,0.00,944.00,VWS V14.01,2013-08-23 16:07:00,
2013-08-23 12:12:00,75.5,61.6,30.03,WSW,257,0.0,8.0,62,0.00,,---,0.00,993.00,VWS V14.01,2013-08-23 16:12:00,
2013-08-23 12:16:00,75.0,61.6,30.03,West,267,2.0,8.0,63,0.00,,---,0.00,192.00,VWS V14.01,2013-08-23 16:16:00,
2013-08-23 12:21:00,73.5,61.0,30.03,WSW,248,0.0,8.0,65,0.00,,---,0.00,155.00,VWS V14.01,2013-08-23 16:21:00,
2013-08-23 12:26:00,72.7,61.5,30.03,ENE,74,0.0,8.0,68,0.00,,---,0.00,918.00,VWS V14.01,2013-08-23 16:26:00,
2013-08-23 12:30:00,74.0,62.8,30.04,WNW,290,4.0,9.0,68,0.00,,---,0.00,863.00,VWS V14.01,2013-08-23 16:30:00,
2013-08-23 12:31:00,73.8,61.3,30.02,East,83,0.0,3.0,65,0.00,,---,0.00,928.00,VWS V14.01,2013-08-23 16:31:00,
2013-08-23 12:36:00,74.4,61.4,30.02,ENE,68,0.0,4.0,64,0.00,,---,0.00,229.00,VWS V14.01,2013-08-23 16:36:00,
2013-08-23 12:41:00,74.6,61.2,30.02,North,10,0.0,7.0,63,0.00,,---,0.00,1004.00,VWS V14.01,2013-08-23 16:41:00,
2013-08-23 12:46:00,74.7,61.7,30.02,ENE,65,0.0,7.0,64,0.00,,---,0.00,1004.00,VWS V14.01,2013-08-23 16:46:00,
2013-08-23 12:51:00,74.3,60.5,30.02,WNW,290,0.0,7.0,62,0.00,,---,0.00,174.00,VWS V14.01,2013-08-23 16:51:00,
2013-08-23 12:56:00,73.8,61.3,30.02,WNW,284,1.0,7.0,65,0.00,,---,0.00,877.00,VWS V14.01,2013-08-23 16:56:00,
2013-08-23 13:00:00,75.2,63.9,30.03,ENE,64,4.0,11.0,68,0.00,,---,0.00,1020.00,VWS V14.01,2013-08-23 17:00:00,
2013-08-23 13:01:00,74.3,60.0,30.02,WSW,250,0.0,4.0,61,0.00,,---,0.00,343.00,VWS V14.01,2013-08-23 17:01:00,
2013-08-23 13:06:00,75.0,60.7,30.02,ENE,77,1.0,4.0,61,0.00,,---,0.00,536.00,VWS V14.01,2013-08-23 17:06:00,
2013-08-23 13:11:00,74.6,58.9,30.03,NNE,27,1.0,4.0,58,0.00,,---,0.00,388.00,VWS V14.01,2013-08-23 17:11:00,
2013-08-23 13:16:00,74.5,59.7,30.03,WNW,298,0.0,4.0,60,0.00,,---,0.00,889.00,VWS V14.01,2013-08-23 17:16:00,
2013-08-23 13:21:00,75.1,60.3,30.03,East,88,2.0,7.0,60,0.00,,---,0.00,889.00,VWS V14.01,2013-08-23 17:21:00,
2013-08-23 13:26:00,75.6,60.8,30.03,NNW,348,0.0,7.0,60,0.00,,---,0.00,575.00,VWS V14.01,2013-08-23 17:26:00,
2013-08-23 13:30:00,73.4,60.9,30.02,ENE,71,2.0,8.0,65,0.00,,---,0.00,928.00,VWS V14.01,2013-08-23 17:30:00,
2013-08-23 13:31:00,76.1,61.2,30.03,East,94,3.0,3.0,60,0.00,,---,0.00,737.00,VWS V14.01,2013-08-23 17:31:00,
2013-08-23 13:36:00,75.7,60.8,30.03,WSW,246,0.0,7.0,60,0.00,,---,0.00,499.00,VWS V14.01,2013-08-23 17:36:00,
2013-08-23 13:41:00,75.2,61.3,30.03,ENE,74,0.0,7.0,62,0.00,,---,0.00,441.00,VWS V14.01,2013-08-23 17:41:00,
2013-08-23 13:46:00,75.1,60.3,30.03,NE,51,0.0,7.0,60,0.00,,---,0.00,441.00,VWS V14.01,2013-08-23 17:46:00,
2013-08-23 13:51:00,75.0,60.2,30.03,North,360,0.0,7.0,60,0.00,,---,0.00,819.00,VWS V14.01,2013-08-23 17:51:00,
2013-08-23 13:56:00,74.8,60.9,30.03,North,360,0.0,7.0,62,0.00,,---,0.00,206.00,VWS V14.01,2013-08-23 17:56:00,
2013-08-23 14:00:00,74.2,59.9,30.02,ENE,71,2.0,7.0,61,0.00,,---,0.00,343.00,VWS V14.01,2013-08-23 18:00:00,
2013-08-23 14:01:00,74.8,61.8,30.03,ENE,65,1.0,5.0,64,0.00,,---,0.00,828.00,VWS V14.01,2013-08-23 18:01:00,
2013-08-23 14:06:00,75.6,60.8,30.03,NE,39,0.0,7.0,60,0.00,,---,0.00,821.00,VWS V14.01,2013-08-23 18:06:00,
2013-08-23 14:11:00,76.2,60.8,30.03,ENE,71,0.0,7.0,59,0.00,,---,0.00,800.00,VWS V14.01,2013-08-23 18:11:00,
2013-08-23 14:16:00,76.3,59.5,30.04,ESE,115,0.0,7.0,56,0.00,,---,0.00,809.00,VWS V14.01,2013-08-23 18:16:00,
2013-08-23 14:21:00,76.4,60.1,30.04,NNE,32,0.0,7.0,57,0.00,,---,0.00,861.00,VWS V14.01,2013-08-23 18:21:00,
2013-08-23 14:26:00,75.9,60.6,30.04,NNE,24,0.0,7.0,59,0.00,,---,0.00,735.00,VWS V14.01,2013-08-23 18:26:00,
2013-08-23 14:30:00,76.0,61.6,30.03,WNW,292,0.0,7.0,61,0.00,,---,0.00,737.00,VWS V14.01,2013-08-23 18:30:00,
2013-08-23 14:31:00,76.2,60.8,30.04,West,273,0.0,2.0,59,0.00,,---,0.00,837.00,VWS V14.01,2013-08-23 18:31:00,
2013-08-23 14:36:00,76.0,59.7,30.04,East,91,2.0,6.0,57,0.00,,---,0.00,844.00,VWS V14.01,2013-08-23 18:36:00,
2013-08-23 14:41:00,76.0,57.7,30.04,NE,35,2.0,7.0,53,0.00,,---,0.00,775.00,VWS V14.01,2013-08-23 18:41:00,
2013-08-23 14:46:00,76.1,59.3,30.04,ENE,76,0.0,7.0,56,0.00,,---,0.00,795.00,VWS V14.01,2013-08-23 18:46:00,
2013-08-23 14:51:00,76.1,59.3,30.04,SE,134,2.0,7.0,56,0.00,,---,0.00,823.00,VWS V14.01,2013-08-23 18:51:00,
2013-08-23 14:56:00,76.5,58.6,30.04,NNW,343,1.0,7.0,54,0.00,,---,0.00,788.00,VWS V14.01,2013-08-23 18:56:00,
2013-08-23 15:00:00,74.6,60.7,30.03,ENE,65,0.0,7.0,62,0.00,,---,0.00,828.00,VWS V14.01,2013-08-23 19:00:00,
2013-08-23 15:01:00,76.0,57.7,30.04,ENE,73,0.0,0.0,53,0.00,,---,0.00,775.00,VWS V14.01,2013-08-23 19:01:00,
2013-08-23 15:06:00,76.4,57.5,30.04,NW,306,8.0,8.0,52,0.00,,---,0.00,698.00,VWS V14.01,2013-08-23 19:06:00,
2013-08-23 15:11:00,76.4,57.0,30.04,East,82,0.0,8.0,51,0.00,,---,0.00,710.00,VWS V14.01,2013-08-23 19:11:00,
2013-08-23 15:16:00,76.2,57.8,30.04,West,261,0.0,8.0,53,0.00,,---,0.00,694.00,VWS V14.01,2013-08-23 19:16:00,
2013-08-23 15:21:00,76.1,58.8,30.04,East,79,0.0,8.0,55,0.00,,---,0.00,670.00,VWS V14.01,2013-08-23 19:21:00,
2013-08-23 15:26:00,75.8,58.5,30.04,NNW,330,0.0,8.0,55,0.00,,---,0.00,151.00,VWS V14.01,2013-08-23 19:26:00,
2013-08-23 15:30:00,76.1,59.3,30.04,NE,49,1.0,7.0,56,0.00,,---,0.00,812.00,VWS V14.01,2013-08-23 19:30:00,
2013-08-23 15:31:00,75.3,55.9,30.04,North,10,4.0,4.0,51,0.00,,---,0.00,299.00,VWS V14.01,2013-08-23 19:31:00,
2013-08-23 15:36:00,74.6,56.4,30.04,WNW,296,2.0,6.0,53,0.00,,---,0.00,763.00,VWS V14.01,2013-08-23 19:36:00,
2013-08-23 15:41:00,74.9,56.6,30.04,WSW,238,3.0,6.0,53,0.00,,---,0.00,673.00,VWS V14.01,2013-08-23 19:41:00,
2013-08-23 15:46:00,75.1,56.8,30.05,ENE,62,4.0,6.0,53,0.00,,---,0.00,638.00,VWS V14.01,2013-08-23 19:46:00,
2013-08-23 15:51:00,75.3,57.5,30.04,NE,43,0.0,6.0,54,0.00,,---,0.00,615.00,VWS V14.01,2013-08-23 19:51:00,
2013-08-23 15:56:00,75.3,57.5,30.04,ENE,57,0.0,8.0,54,0.00,,---,0.00,603.00,VWS V14.01,2013-08-23 19:56:00,
2013-08-23 16:00:00,76.2,57.3,30.04,ENE,73,0.0,7.0,52,0.00,,---,0.00,766.00,VWS V14.01,2013-08-23 20:00:00,
2013-08-23 16:01:00,75.4,57.1,30.04,ESE,113,3.0,3.0,53,0.00,,---,0.00,615.00,VWS V14.01,2013-08-23 20:01:00,
2013-08-23 16:06:00,75.5,56.1,30.04,NE,53,0.0,6.0,51,0.00,,---,0.00,580.00,VWS V14.01,2013-08-23 20:06:00,
2013-08-23 16:11:00,75.6,55.7,30.04,NE,51,2.0,6.0,50,0.00,,---,0.00,566.00,VWS V14.01,2013-08-23 20:11:00,
2013-08-23 16:16:00,75.5,56.1,30.04,NW,309,0.0,6.0,51,0.00,,---,0.00,555.00,VWS V14.01,2013-08-23 20:16:00,
2013-08-23 16:21:00,75.6,55.1,30.04,ESE,119,0.0,10.0,49,0.00,,---,0.00,545.00,VWS V14.01,2013-08-23 20:21:00,
2013-08-23 16:26:00,75.7,55.8,30.04,ENE,76,0.0,10.0,50,0.00,,---,0.00,529.00,VWS V14.01,2013-08-23 20:26:00,
2013-08-23 16:30:00,75.5,56.7,30.04,ESE,117,0.0,8.0,52,0.00,,---,0.00,151.00,VWS V14.01,2013-08-23 20:30:00,
2013-08-23 16:31:00,75.4,55.5,30.04,SSE,147,3.0,3.0,50,0.00,,---,0.00,513.00,VWS V14.01,2013-08-23 20:31:00,
2013-08-23 16:39:00,75.2,55.8,30.04,West,269,0.0,4.0,51,0.00,,---,0.00,492.00,VWS V14.01,2013-08-23 20:39:00,
2013-08-23 16:44:00,75.1,56.3,30.05,ENE,64,0.0,4.0,52,0.00,,---,0.00,476.00,VWS V14.01,2013-08-23 20:44:00,
2013-08-23 16:49:00,74.9,55.0,30.05,NE,36,0.0,6.0,50,0.00,,---,0.00,468.00,VWS V14.01,2013-08-23 20:49:00,
2013-08-23 16:54:00,74.6,52.5,30.05,ENE,66,1.0,6.0,46,0.00,,---,0.00,452.00,VWS V14.01,2013-08-23 20:54:00,
2013-08-23 16:59:00,74.8,52.7,30.05,ENE,61,3.0,6.0,46,0.00,,---,0.00,436.00,VWS V14.01,2013-08-23 20:59:00,
2013-08-23 17:00:00,75.4,57.6,30.04,NNE,16,0.0,8.0,54,0.00,,---,0.00,615.00,VWS V14.01,2013-08-23 21:00:00,
2013-08-23 17:04:00,74.6,51.9,30.05,North,360,0.0,4.0,45,0.00,,---,0.00,424.00,VWS V14.01,2013-08-23 21:04:00,
2013-08-23 17:09:00,74.5,53.0,30.05,NE,45,0.0,4.0,47,0.00,,---,0.00,410.00,VWS V14.01,2013-08-23 21:09:00,
2013-08-23 17:14:00,74.4,52.9,30.05,WSW,246,0.0,8.0,47,0.00,,---,0.00,399.00,VWS V14.01,2013-08-23 21:14:00,
2013-08-23 17:19:00,74.5,52.4,30.05,NW,305,0.0,8.0,46,0.00,,---,0.00,376.00,VWS V14.01,2013-08-23 21:19:00,
2013-08-23 17:24:00,74.6,51.9,30.05,SW,232,0.0,8.0,45,0.00,,---,0.00,362.00,VWS V14.01,2013-08-23 21:24:00,
2013-08-23 17:29:00,74.7,52.0,30.05,West,264,0.0,8.0,45,0.00,,---,0.00,346.00,VWS V14.01,2013-08-23 21:29:00,
2013-08-23 17:30:00,75.5,55.0,30.05,NNW,344,0.0,10.0,49,0.00,,---,0.00,519.00,VWS V14.01,2013-08-23 21:30:00,
2013-08-23 17:34:00,74.5,51.8,30.05,NE,54,0.0,1.0,45,0.00,,---,0.00,325.00,VWS V14.01,2013-08-23 21:34:00,
2013-08-23 17:39:00,74.4,51.7,30.06,NE,54,0.0,1.0,45,0.00,,---,0.00,306.00,VWS V14.01,2013-08-23 21:39:00,
2013-08-23 17:44:00,74.4,52.9,30.06,NE,54,0.0,1.0,47,0.00,,---,0.00,294.00,VWS V14.01,2013-08-23 21:44:00,
2013-08-23 17:49:00,74.4,52.9,30.06,NE,54,0.0,1.0,47,0.00,,---,0.00,274.00,VWS V14.01,2013-08-23 21:49:00,
2013-08-23 17:54:00,74.3,52.8,30.06,NE,54,0.0,1.0,47,0.00,,---,0.00,220.00,VWS V14.01,2013-08-23 21:54:00,
2013-08-23 17:59:00,74.1,53.7,30.06,WNW,301,0.0,1.0,49,0.00,,---,0.00,167.00,VWS V14.01,2013-08-23 21:59:00,
2013-08-23 18:00:00,74.7,52.6,30.05,ENE,61,0.0,6.0,46,0.00,,---,0.00,436.00,VWS V14.01,2013-08-23 22:00:00,
2013-08-23 18:04:00,73.8,52.3,30.06,NE,55,0.0,3.0,47,0.00,,---,0.00,98.00,VWS V14.01,2013-08-23 22:04:00,
2013-08-23 18:09:00,73.1,52.8,30.06,NE,55,0.0,3.0,49,0.00,,---,0.00,58.00,VWS V14.01,2013-08-23 22:09:00,
2013-08-23 18:14:00,72.5,52.8,30.06,NE,45,0.0,3.0,50,0.00,,---,0.00,44.00,VWS V14.01,2013-08-23 22:14:00,
2013-08-23 18:19:00,72.2,52.5,30.06,NNE,32,0.0,3.0,50,0.00,,---,0.00,28.00,VWS V14.01,2013-08-23 22:19:00,
2013-08-23 18:24:00,72.1,52.5,30.06,North,355,0.0,3.0,50,0.00,,---,0.00,26.00,VWS V14.01,2013-08-23 22:24:00,
2013-08-23 18:29:00,71.7,52.6,30.06,North,355,0.0,3.0,51,0.00,,---,0.00,35.00,VWS V14.01,2013-08-23 22:29:00,
2013-08-23 18:30:00,74.6,51.9,30.05,West,264,0.0,8.0,45,0.00,,---,0.00,346.00,VWS V14.01,2013-08-23 22:30:00,
2013-08-23 18:34:00,71.5,52.4,30.06,North,355,0.0,0.0,51,0.00,,---,0.00,26.00,VWS V14.01,2013-08-23 22:34:00,
2013-08-23 18:39:00,71.0,52.5,30.06,North,355,0.0,0.0,52,0.00,,---,0.00,21.00,VWS V14.01,2013-08-23 22:39:00,
2013-08-23 18:44:00,70.8,52.8,30.06,ENE,62,0.0,1.0,53,0.00,,---,0.00,21.00,VWS V14.01,2013-08-23 22:44:00,
2013-08-23 18:49:00,70.4,52.5,30.06,ENE,62,0.0,1.0,53,0.00,,---,0.00,19.00,VWS V14.01,2013-08-23 22:49:00,
2013-08-23 18:54:00,70.0,53.6,30.06,ENE,62,0.0,1.0,56,0.00,,---,0.00,18.00,VWS V14.01,2013-08-23 22:54:00,
2013-08-23 18:59:00,69.6,52.7,30.06,ENE,62,0.0,1.0,55,0.00,,---,0.00,16.00,VWS V14.01,2013-08-23 22:59:00,
2013-08-23 19:00:00,74.1,54.3,30.06,WNW,301,0.0,1.0,50,0.00,,---,0.00,165.00,VWS V14.01,2013-08-23 23:00:00,
2013-08-23 19:04:00,69.3,52.5,30.06,ENE,62,0.0,0.0,55,0.00,,---,0.00,14.00,VWS V14.01,2013-08-23 23:04:00,
2013-08-23 19:09:00,69.0,52.7,30.06,ENE,62,0.0,0.0,56,0.00,,---,0.00,12.00,VWS V14.01,2013-08-23 23:09:00,
2013-08-23 19:14:00,68.7,53.3,30.07,ENE,62,0.0,2.0,58,0.00,,---,0.00,12.00,VWS V14.01,2013-08-23 23:14:00,
2013-08-23 19:19:00,68.4,53.5,30.07,ENE,62,0.0,2.0,59,0.00,,---,0.00,11.00,VWS V14.01,2013-08-23 23:19:00,
2013-08-23 19:24:00,68.0,53.6,30.08,ENE,62,0.0,2.0,60,0.00,,---,0.00,9.00,VWS V14.01,2013-08-23 23:24:00,
2013-08-23 19:29:00,67.6,53.2,30.08,ENE,62,0.0,2.0,60,0.00,,---,0.00,7.00,VWS V14.01,2013-08-23 23:29:00,
2013-08-23 19:30:00,71.7,52.1,30.06,North,355,0.0,3.0,50,0.00,,---,0.00,37.00,VWS V14.01,2013-08-23 23:30:00,
2013-08-23 19:34:00,67.3,53.4,30.08,ENE,62,0.0,0.0,61,0.00,,---,0.00,5.00,VWS V14.01,2013-08-23 23:34:00,
2013-08-23 19:39:00,66.8,53.4,30.08,ENE,62,0.0,0.0,62,0.00,,---,0.00,0.00,VWS V14.01,2013-08-23 23:39:00,
2013-08-23 19:44:00,66.4,53.4,30.08,ENE,62,0.0,0.0,63,0.00,,---,0.00,0.00,VWS V14.01,2013-08-23 23:44:00,
2013-08-23 19:49:00,66.0,54.3,30.08,ENE,62,0.0,0.0,66,0.00,,---,0.00,0.00,VWS V14.01,2013-08-23 23:49:00,
2013-08-23 19:54:00,65.5,54.3,30.08,ENE,62,0.0,0.0,67,0.00,,---,0.00,0.00,VWS V14.01,2013-08-23 23:54:00,
2013-08-23 19:59:00,64.9,54.1,30.08,ENE,62,0.0,0.0,68,0.00,,---,0.00,0.00,VWS V14.01,2013-08-23 23:59:00,
2013-08-23 20:00:00,69.5,52.6,30.06,ENE,62,0.0,1.0,55,0.00,,---,0.00,16.00,VWS V14.01,2013-08-24 00:00:00,
2013-08-23 20:04:00,64.4,54.0,30.09,ENE,62,0.0,0.0,69,0.00,,---,0.00,0.00,VWS V14.01,2013-08-24 00:04:00,
2013-08-23 20:09:00,64.0,54.4,30.09,ENE,62,0.0,0.0,71,0.00,,---,0.00,0.00,VWS V14.01,2013-08-24 00:09:00,
2013-08-23 20:14:00,63.5,53.9,30.09,ENE,62,0.0,0.0,71,0.00,,---,0.00,0.00,VWS V14.01,2013-08-24 00:14:00,
2013-08-23 20:19:00,63.2,54.0,30.10,ENE,62,0.0,0.0,72,0.00,,---,0.00,0.00,VWS V14.01,2013-08-24 00:19:00,
2013-08-23 20:24:00,62.8,54.0,30.10,ENE,62,0.0,0.0,73,0.00,,---,0.00,0.00,VWS V14.01,2013-08-24 00:24:00,
2013-08-23 20:29:00,62.4,54.4,30.10,ENE,62,0.0,0.0,75,0.00,,---,0.00,0.00,VWS V14.01,2013-08-24 00:29:00,
2013-08-23 20:30:00,67.6,53.2,30.08,ENE,62,0.0,2.0,60,0.00,,---,0.00,5.00,VWS V14.01,2013-08-24 00:30:00,
2013-08-23 20:34:00,62.1,54.1,30.10,ENE,62,0.0,0.0,75,0.00,,---,0.00,0.00,VWS V14.01,2013-08-24 00:34:00,
2013-08-23 20:39:00,61.8,54.2,30.10,ENE,62,0.0,0.0,76,0.00,,---,0.00,0.00,VWS V14.01,2013-08-24 00:39:00,
2013-08-23 20:44:00,61.4,54.1,30.11,ENE,62,0.0,0.0,77,0.00,,---,0.00,0.00,VWS V14.01,2013-08-24 00:44:00,
2013-08-23 20:49:00,61.1,53.8,30.11,ENE,62,0.0,0.0,77,0.00,,---,0.00,0.00,VWS V14.01,2013-08-24 00:49:00,
2013-08-23 20:54:00,60.8,54.3,30.11,ENE,62,0.0,0.0,79,0.00,,---,0.00,0.00,VWS V14.01,2013-08-24 00:54:00,
2013-08-23 20:59:00,60.6,54.1,30.11,ENE,62,0.0,0.0,79,0.00,,---,0.00,0.00,VWS V14.01,2013-08-24 00:59:00,
2013-08-23 21:00:00,64.9,54.1,30.08,ENE,62,0.0,0.0,68,0.00,,---,0.00,0.00,VWS V14.01,2013-08-24 01:00:00,
2013-08-23 21:04:00,60.3,53.8,30.12,ENE,62,0.0,0.0,79,0.00,,---,0.00,0.00,VWS V14.01,2013-08-24 01:04:00,
2013-08-23 21:09:00,60.0,53.8,30.12,ENE,62,0.0,0.0,80,0.00,,---,0.00,0.00,VWS V14.01,2013-08-24 01:09:00,
2013-08-23 21:14:00,59.7,53.9,30.12,ENE,62,0.0,0.0,81,0.00,,---,0.00,0.00,VWS V14.01,2013-08-24 01:14:00,
2013-08-23 21:19:00,59.5,53.7,30.12,ENE,62,0.0,0.0,81,0.00,,---,0.00,0.00,VWS V14.01,2013-08-24 01:19:00,
2013-08-23 21:24:00,59.3,53.8,30.12,ENE,62,0.0,0.0,82,0.00,,---,0.00,0.00,VWS V14.01,2013-08-24 01:24:00,
2013-08-23 21:29:00,59.0,53.8,30.13,ENE,62,0.0,0.0,83,0.00,,---,0.00,0.00,VWS V14.01,2013-08-24 01:29:00,
2013-08-23 21:30:00,62.4,54.0,30.10,ENE,62,0.0,0.0,74,0.00,,---,0.00,0.00,VWS V14.01,2013-08-24 01:30:00,
2013-08-23 21:34:00,58.6,53.8,30.13,ENE,62,0.0,0.0,84,0.00,,---,0.00,0.00,VWS V14.01,2013-08-24 01:34:00,
2013-08-23 21:39:00,58.4,53.6,30.13,ENE,62,0.0,0.0,84,0.00,,---,0.00,0.00,VWS V14.01,2013-08-24 01:39:00,
2013-08-23 21:44:00,58.1,53.6,30.14,ENE,62,0.0,0.0,85,0.00,,---,0.00,0.00,VWS V14.01,2013-08-24 01:44:00,
2013-08-23 21:49:00,57.9,53.4,30.14,ENE,62,0.0,0.0,85,0.00,,---,0.00,0.00,VWS V14.01,2013-08-24 01:49:00,
2013-08-23 21:54:00,57.6,53.5,30.14,ENE,62,0.0,0.0,86,0.00,,---,0.00,0.00,VWS V14.01,2013-08-24 01:54:00,
2013-08-23 21:59:00,57.4,53.2,30.14,ENE,62,0.0,0.0,86,0.00,,---,0.00,0.00,VWS V14.01,2013-08-24 01:59:00,
2013-08-23 22:00:00,60.5,54.0,30.11,ENE,62,0.0,0.0,79,0.00,,---,0.00,0.00,VWS V14.01,2013-08-24 02:00:00,
2013-08-23 22:04:00,57.2,53.4,30.14,ENE,62,0.0,0.0,87,0.00,,---,0.00,0.00,VWS V14.01,2013-08-24 02:04:00,
2013-08-23 22:09:00,57.0,53.2,30.14,ENE,62,0.0,0.0,87,0.00,,---,0.00,0.00,VWS V14.01,2013-08-24 02:09:00,
2013-08-23 22:14:00,56.9,53.4,30.14,ENE,62,0.0,0.0,88,0.00,,---,0.00,0.00,VWS V14.01,2013-08-24 02:14:00,
2013-08-23 22:19:00,56.9,53.4,30.14,ENE,62,0.0,1.0,88,0.00,,---,0.00,0.00,VWS V14.01,2013-08-24 02:19:00,
2013-08-23 22:24:00,56.8,53.3,30.15,ENE,62,0.0,1.0,88,0.00,,---,0.00,0.00,VWS V14.01,2013-08-24 02:24:00,
2013-08-23 22:29:00,56.9,53.7,30.14,ENE,62,0.0,1.0,89,0.00,,---,0.00,0.00,VWS V14.01,2013-08-24 02:29:00,
2013-08-23 22:30:00,58.9,53.8,30.13,ENE,62,0.0,0.0,83,0.00,,---,0.00,0.00,VWS V14.01,2013-08-24 02:30:00,
2013-08-23 22:34:00,56.8,53.3,30.15,ENE,62,0.0,0.0,88,0.00,,---,0.00,0.00,VWS V14.01,2013-08-24 02:34:00,
2013-08-23 22:39:00,56.6,53.4,30.15,ENE,62,0.0,0.0,89,0.00,,---,0.00,0.00,VWS V14.01,2013-08-24 02:39:00,
2013-08-23 22:44:00,56.6,53.4,30.15,ENE,62,0.0,0.0,89,0.00,,---,0.00,0.00,VWS V14.01,2013-08-24 02:44:00,
2013-08-23 22:49:00,56.4,53.2,30.16,ENE,62,0.0,0.0,89,0.00,,---,0.00,0.00,VWS V14.01,2013-08-24 02:49:00,
2013-08-23 22:54:00,56.2,53.0,30.16,ENE,62,0.0,0.0,89,0.00,,---,0.00,0.00,VWS V14.01,2013-08-24 02:54:00,
2013-08-23 22:59:00,56.0,52.8,30.16,ENE,62,0.0,0.0,89,0.00,,---,0.00,0.00,VWS V14.01,2013-08-24 02:59:00,
2013-08-23 23:00:00,57.4,53.2,30.14,ENE,62,0.0,0.0,86,0.00,,---,0.00,0.00,VWS V14.01,2013-08-24 03:00:00,
2013-08-23 23:04:00,55.8,52.6,30.16,ENE,62,0.0,0.0,89,0.00,,---,0.00,0.00,VWS V14.01,2013-08-24 03:04:00,
2013-08-23 23:09:00,55.5,52.3,30.16,ENE,62,0.0,0.0,89,0.00,,---,0.00,0.00,VWS V14.01,2013-08-24 03:09:00,
2013-08-23 23:14:00,55.2,52.0,30.17,ENE,62,0.0,0.0,89,0.00,,---,0.00,0.00,VWS V14.01,2013-08-24 03:14:00,
2013-08-23 23:19:00,55.1,52.2,30.17,ENE,62,0.0,0.0,90,0.00,,---,0.00,0.00,VWS V14.01,2013-08-24 03:19:00,
2013-08-23 23:24:00,54.9,52.0,30.17,ENE,62,0.0,0.0,90,0.00,,---,0.00,0.00,VWS V14.01,2013-08-24 03:24:00,
2013-08-23 23:29:00,54.8,51.9,30.17,ENE,62,0.0,0.0,90,0.00,,---,0.00,0.00,VWS V14.01,2013-08-24 03:29:00,
2013-08-23 23:30:00,56.8,53.3,30.14,ENE,62,0.0,1.0,88,0.00,,---,0.00,0.00,VWS V14.01,2013-08-24 03:30:00,
2013-08-23 23:34:00,54.8,51.9,30.17,ENE,62,0.0,0.0,90,0.00,,---,0.00,0.00,VWS V14.01,2013-08-24 03:34:00,
2013-08-23 23:39:00,54.9,52.3,30.18,ENE,62,0.0,0.0,91,0.00,,---,0.00,0.00,VWS V14.01,2013-08-24 03:39:00,
2013-08-23 23:44:00,54.9,52.3,30.18,ENE,62,0.0,0.0,91,0.00,,---,0.00,0.00,VWS V14.01,2013-08-24 03:44:00,
2013-08-23 23:49:00,54.8,52.2,30.18,ENE,62,0.0,0.0,91,0.00,,---,0.00,0.00,VWS V14.01,2013-08-24 03:49:00,
2013-08-23 23:54:00,54.6,52.0,30.18,ENE,62,0.0,0.0,91,0.00,,---,0.00,0.00,VWS V14.01,2013-08-24 03:54:00,
2013-08-23 23:59:00,54.5,51.6,30.19,ENE,62,0.0,0.0,90,0.00,,---,0.00,0.00,VWS V14.01,2013-08-24 03:59:00,